DW6794 Weather Reports


Display with metric or nautical units.
time (UTC)temp
F
wind
direction
speed
MPH
gust
MPH
rain 1hr
in
rain 24hr
in
rain mn
in
humidity
%
barometer
mb
20141026001412 63 240 0.0 0.0 0.00 0.00 0.00 61 1014.0
20141026000413 63 240 0.0 0.0 0.00 0.00 0.00 61 1014.1
20141025235413 63 240 0.0 0.0 0.00 0.00 0.00 60 1014.0
20141025234412 63 240 0.0 2.0 0.00 0.00 0.00 60 1013.9
20141025233413 63 240 0.0 3.0 0.00 0.00 0.00 60 1013.9
20141025232412 63 238 2.0 3.0 0.00 0.00 0.00 60 1014.0
20141025230413 64 236 0.0 0.0 0.00 0.00 0.00 59 1013.8
20141025225412 64 236 0.0 0.0 0.00 0.00 0.00 58 1013.7
20141025224412 64 236 0.0 2.0 0.00 0.00 0.00 58 1013.5
20141025223413 65 236 0.0 3.0 0.00 0.00 0.00 57 1013.5
20141025222413 65 236 1.0 3.0 0.00 0.00 0.00 57 1013.4
20141025220413 66 237 0.0 3.0 0.00 0.00 0.00 56 1013.5
20141025215413 66 249 1.0 3.0 0.00 0.00 0.00 56 1013.6
20141025212413 66 249 0.0 2.0 0.00 0.00 0.00 56 1013.9
20141025211413 66 249 0.0 2.0 0.00 0.00 0.00 56 1014.0
20141025210413 66 249 1.0 5.0 0.00 0.00 0.00 55 1013.9
20141025204413 67 274 4.0 7.0 0.00 0.00 0.00 54 1013.9
20141025203413 67 247 2.0 7.0 0.00 0.00 0.00 55 1013.9
20141025202413 68 257 5.0 12.0 0.00 0.00 0.00 54 1013.9
20141025201413 68 259 3.0 6.0 0.00 0.00 0.00 55 1013.8
20141025195413 67 271 1.0 12.0 0.00 0.00 0.00 55 1013.8
20141025194414 67 263 5.0 8.0 0.00 0.00 0.00 56 1013.7
20141025193413 67 201 2.0 9.0 0.00 0.00 0.00 57 1013.5
20141025192413 66 267 4.0 8.0 0.00 0.00 0.00 56 1013.6
20141025191413 66 267 4.0 9.0 0.00 0.00 0.00 57 1013.9
20141025190414 66 261 2.0 7.0 0.00 0.00 0.00 58 1014.1
20141025185414 66 306 2.0 7.0 0.00 0.00 0.00 58 1014.4
20141025184413 65 229 2.0 9.0 0.00 0.00 0.00 58 1014.5
20141025183413 65 242 2.0 9.0 0.00 0.00 0.00 58 1014.6
20141025182413 65 250 2.0 6.0 0.00 0.00 0.00 60 1014.9
20141025181413 65 232 3.0 8.0 0.00 0.00 0.00 60 1015.0
20141025180413 64 261 2.0 5.0 0.00 0.00 0.00 60 1015.2
20141025175413 64 256 1.0 6.0 0.00 0.00 0.00 61 1015.3
20141025174414 64 264 0.0 7.0 0.00 0.00 0.00 62 1015.6
20141025173414 63 327 0.0 5.0 0.00 0.00 0.00 63 1015.6
20141025171413 62 254 1.0 3.0 0.00 0.00 0.00 63 1015.8
20141025170415 62 263 3.0 6.0 0.00 0.00 0.00 62 1016.1
20141025165414 62 262 2.0 7.0 0.00 0.00 0.00 64 1016.2
20141025164414 61 267 1.0 3.0 0.00 0.00 0.00 67 1016.2
20141025163414 60 252 1.0 3.0 0.00 0.00 0.00 70 1016.4
20141025162414 60 251 0.0 6.0 0.00 0.00 0.00 70 1016.6
20141025161414 59 246 1.0 3.0 0.00 0.00 0.00 71 1016.8
20141025160414 58 256 1.0 3.0 0.00 0.00 0.00 73 1016.8
20141025155414 57 259 1.0 3.0 0.00 0.00 0.00 74 1016.8
20141025154414 56 274 0.0 3.0 0.00 0.00 0.00 76 1016.8
20141025152413 55 258 1.0 3.0 0.00 0.00 0.00 80 1016.8
20141025151414 55 186 0.0 0.0 0.00 0.00 0.00 81 1016.8
20141025145414 53 186 0.0 0.0 0.00 0.00 0.00 82 1017.3
20141025144413 52 186 0.0 0.0 0.00 0.00 0.00 82 1017.4
20141025143414 50 186 0.0 0.0 0.00 0.00 0.00 83 1017.5
20141025142414 49 186 0.0 0.0 0.00 0.00 0.00 83 1017.7
20141025140414 47 186 0.0 0.0 0.00 0.00 0.00 84 1018.0
20141025135414 45 186 0.0 0.0 0.00 0.00 0.00 84 1017.5
20141025134414 44 186 0.0 0.0 0.00 0.00 0.00 85 1017.5
20141025133415 42 207 0.0 0.0 0.00 0.00 0.00 85 1017.6
20141025132414 40 207 0.0 0.0 0.00 0.00 0.00 84 1017.6
20141025131414 39 117 0.0 0.0 0.00 0.00 0.00 84 1017.6
20141025130415 38 116 0.0 0.0 0.00 0.00 0.00 84 1017.5
20141025125414 36 117 0.0 0.0 0.00 0.00 0.00 84 1017.4
20141025123414 34 117 0.0 0.0 0.00 0.00 0.00 83 1017.5
20141025122414 33 117 0.0 0.0 0.00 0.00 0.00 83 1017.1
20141025121415 33 117 0.0 0.0 0.00 0.00 0.00 83 1017.1
20141025120414 33 117 0.0 0.0 0.00 0.00 0.00 82 1017.3
20141025115415 32 117 0.0 0.0 0.00 0.00 0.00 82 1017.4
20141025113415 32 117 0.0 0.0 0.00 0.00 0.00 81 1017.7
20141025112414 32 117 0.0 0.0 0.00 0.00 0.00 81 1017.7
20141025111415 33 117 0.0 0.0 0.00 0.00 0.00 81 1017.6
20141025110415 33 117 0.0 0.0 0.00 0.00 0.00 81 1017.4
20141025105414 33 117 0.0 0.0 0.00 0.00 0.00 81 1017.3
20141025104414 33 117 0.0 0.0 0.00 0.00 0.00 81 1017.1
20141025103415 33 117 0.0 0.0 0.00 0.00 0.00 81 1017.1
20141025102415 33 117 0.0 0.0 0.00 0.00 0.00 81 1017.1
20141025101414 33 117 0.0 0.0 0.00 0.00 0.00 81 1017.2
20141025100415 33 117 0.0 0.0 0.00 0.00 0.00 81 1017.1
20141025095415 33 117 0.0 0.0 0.00 0.00 0.00 81 1017.0
20141025094415 33 117 0.0 0.0 0.00 0.00 0.00 81 1017.0
20141025092416 33 117 0.0 0.0 0.00 0.00 0.00 80 1016.9
20141025091415 34 117 0.0 0.0 0.00 0.00 0.00 80 1016.6
20141025085415 34 117 0.0 0.0 0.00 0.00 0.00 80 1016.3
20141025084415 34 117 0.0 0.0 0.00 0.00 0.00 80 1016.1
20141025082416 34 117 0.0 0.0 0.00 0.00 0.00 80 1016.4
20141025081416 34 117 0.0 0.0 0.00 0.00 0.00 80 1016.5
20141025080415 35 117 0.0 0.0 0.00 0.00 0.00 80 1016.5
20141025075415 35 117 0.0 0.0 0.00 0.00 0.00 80 1016.5
20141025074415 35 117 0.0 0.0 0.00 0.00 0.00 80 1016.6
20141025073415 35 117 0.0 0.0 0.00 0.00 0.00 79 1016.8
20141025072415 35 117 0.0 0.0 0.00 0.00 0.00 79 1016.8
20141025071416 35 117 0.0 0.0 0.00 0.00 0.00 79 1016.9
20141025070416 36 117 0.0 0.0 0.00 0.00 0.00 79 1016.9
20141025065416 36 117 0.0 0.0 0.00 0.00 0.00 79 1016.9
20141025064416 36 117 0.0 0.0 0.00 0.00 0.00 79 1016.8
20141025063416 36 117 0.0 0.0 0.00 0.00 0.00 78 1016.7
20141025062416 37 117 0.0 0.0 0.00 0.00 0.00 78 1016.6
20141025061416 37 117 0.0 0.0 0.00 0.00 0.00 78 1016.7
20141025060415 37 117 0.0 0.0 0.00 0.00 0.00 78 1016.8
20141025054416 37 117 0.0 0.0 0.00 0.00 0.00 77 1016.8
20141025053416 37 117 0.0 0.0 0.00 0.00 0.00 77 1016.7
20141025052416 38 117 0.0 0.0 0.00 0.00 0.00 77 1016.5
20141025050416 38 117 0.0 0.0 0.00 0.00 0.00 77 1016.6
20141025045415 38 117 0.0 0.0 0.00 0.00 0.00 77 1016.6
20141025044415 38 117 0.0 0.0 0.00 0.00 0.00 77 1016.6
20141025043416 38 117 0.0 0.0 0.00 0.00 0.00 77 1016.4
20141025042416 38 117 0.0 0.0 0.00 0.00 0.00 77 1016.4
20141025041415 39 117 0.0 0.0 0.00 0.00 0.00 76 1016.4
20141025035415 39 117 0.0 0.0 0.00 0.00 0.00 75 1016.5
20141025034416 40 117 0.0 0.0 0.00 0.00 0.00 74 1016.4
20141025033416 40 117 0.0 0.0 0.00 0.00 0.00 74 1016.4
20141025032416 40 117 0.0 0.0 0.00 0.00 0.00 74 1016.3
20141025031416 40 117 0.0 0.0 0.00 0.00 0.00 74 1016.2
20141025030416 40 117 0.0 0.0 0.00 0.00 0.00 74 1016.1
20141025025417 41 117 0.0 0.0 0.00 0.00 0.00 74 1015.9
20141025024416 41 117 0.0 0.0 0.00 0.00 0.00 74 1015.9
20141025023416 41 117 0.0 0.0 0.00 0.00 0.00 73 1016.0
20141025022416 41 117 0.0 0.0 0.00 0.00 0.00 72 1016.3
20141025021416 41 117 0.0 0.0 0.00 0.00 0.00 73 1016.2
20141025020417 42 117 0.0 0.0 0.00 0.00 0.00 72 1016.1
20141025014416 42 117 0.0 0.0 0.00 0.00 0.00 70 1016.1
20141025013416 43 117 0.0 0.0 0.00 0.00 0.00 69 1016.0
20141025012417 43 117 0.0 0.0 0.00 0.00 0.00 70 1015.8
20141025011417 43 117 0.0 0.0 0.00 0.00 0.00 69 1015.8
20141025010416 44 117 0.0 0.0 0.00 0.00 0.00 70 1015.8
20141025005417 44 117 0.0 0.0 0.00 0.00 0.00 70 1015.8
20141025004416 44 117 0.0 0.0 0.00 0.00 0.00 69 1015.8
20141025002416 45 117 0.0 0.0 0.00 0.00 0.00 70 1015.8